Find Starlink 34623

NORAD ID: 65018 Int'l Des: 2025-161 Owner: SPXS Country: US Constellation: starlink operational
LEOCIRCULAR

当前视图

正在加载3D地球...

About Starlink 34623

Starlink 34623 (NORAD 65018) is a starlink constellation satellite (v2 mini) launched Jul 30, 2025 by SPXS of US. It operates in LEO, CIRCULAR orbit with a mass of 575.00 kg.

即将过境

Passes for default location (London). Set your location on the main map for personalized predictions.

高度历史

Loading altitude history...

两行轨道根数

1 65018U 25161D 26263.91035140 .00025344 00000-0 75826-3 0 9996
2 65018 53.1541 105.6785 0002029 91.3591 268.7644 15.34417806 65247
Epoch: Sep 20, 2026 • Age: 17 hours

当前状态

高度 476.1 km
远地点 / 近地点 N/A
速度 7.63 km/s
星下点 -38.49°S, 101.07°E
发射日期 Jul 30, 2025
运行时间 1.1 years
类型 internet

技术详情

分类 Payload
质量 575.00 kg
干质量 530.00 kg
长度 0.30 m
跨度 29.00 m
形状 ? Box + pan
制造商 SPXS
平台类型 Starlink V2MO
阶段状态 In Orbit
所有者/国家 SPXS/US

Most Searched